Location: Bletchingley
(51.2333°N, 0.1000°W)
Time: 22:53:41
(UTC+00:00)

Cosmos 2285 Rocket - Pass Details

Date: 18 September 2020
Orbit: 970 x 1000 km, 74.0° (Epoch: 30 October)

Event Time Altitude Azimuth Distance (km) Brightness Sun altitude
Rises 21:19:09 0° 217° (SW) 3,656 6.9 -27.9°
Reaches altitude 10° 21:21:44 10° 221° (SW) 2,715 6.3 -28.2°
Maximum altitude 21:27:56 59° 300° (WNW) 1,127 4.5 -28.9°
Drops below altitude 10° 21:34:13 10° 20° (NNE) 2,749 6.7 -29.6°
Sets 21:36:50 0° 24° (NNE) 3,706 7.3 -29.8°
